Location: La Brionne
(46.1728°N, 1.7849°E)
Time: 08:05:17
(UTC+00:00)

BREEZE-M DEB (TANK) - Pass Details

Date: 16 June 2021
Orbit: 318 x 12038 km, 49.6° (Epoch: 31 July)

Event Time Altitude Azimuth Distance (km) Brightness Sun altitude
Rises 21:31:11 0° 229° (SW) 2,047 5.0 -13.3°
Reaches altitude 10° 21:32:45 10° 222° (SW) 1,280 3.9 -13.5°
Maximum altitude 21:35:04 48° 145° (SE) 582 1.8 -13.7°
Drops below altitude 10° 21:39:26 10° 70° (ENE) 2,398 5.2 -14.1°
Sets 21:43:33 0° 66° (ENE) 4,360 6.6 -14.4°
